[[{"header":{"parameterUnit":"m.s-1","parameterCategory":1,"la1":30.2991,"la2":30.254,"lo1":-89.0895,"lo2":-89.0444,"dy":0.0017,"dx":0.0017,"nx":28,"ny":28,"refTime":"2024-03-24T09:00:00:Z","depth":0,"parameterNumber":2,"parameterNumberName":"U-component_of_WINDS"},"data":[0,0,0,0,0,0,0,0,0,0,0,0,0,0,0,0,0,0,0,0,0,0,0,0,0,0,0,0,0,0,0,0,0,0,0,0,0,0,0,0,0,0,0,0,0,0,0,0,0,0,0,0,0,0,0,0,0,0,-5.2358,-5.2358,0,-5.2355,-5.2355,-5.2355,-5.2299,-5.2297,-5.2296,-5.2294,-5.2291,-5.2292,-5.2294,0,0,0,0,0,0,0,0,0,0,0,0,0,-5.2316,-5.2317,-5.2358,-5.2358,-5.2358,-5.2355,-5.2355,-5.2355,-5.2299,-5.2297,-5.2295,-5.2294,-5.2291,-5.2292,-5.2294,0,0,0,0,0,0,0,0,0,0,0,0,0,-5.2326,-5.2317,-5.2358,-5.233,-5.2327,-5.2355,-5.2355,-5.2355,-5.2299,-5.2297,-5.2295,-5.2293,-5.229,-5.2292,-5.2294,-5.2349,0,0,-5.23,-5.2301,0,0,0,0,0,0,0,0,-5.2325,-5.2327,-5.2334,-5.2332,-5.2329,-5.2325,-5.2339,-5.2353,-5.23,-5.231,-5.2294,-5.2292,-5.2304,-5.2305,-5.2309,-5.2349,-5.2348,-5.23,-5.2301,-5.2302,-5.2302,0,0,0,0,0,0,0,-5.2325,-5.2327,-5.2357,-5.2334,-5.2331,-5.2317,-5.2316,-5.2341,-5.2319,-5.2309,-5.2305,-5.2305,-5.2302,-5.2307,-5.2308,-5.2348,-5.23,-5.2302,-5.2303,-5.2303,-5.2432,-5.2435,0,0,0,0,0,0,-5.2328,-5.2327,-5.2357,-5.2357,-5.2322,-5.232,-5.2319,-5.2328,-5.2319,-5.2315,-5.2307,-5.2302,-5.2305,-5.2306,-5.2308,-5.237,-5.2302,-5.2304,-5.2305,-5.243,-5.2433,-5.2435,0,0,0,0,0,0,-5.2327,-5.2331,-5.2357,-5.2341,-5.2343,-5.2323,-5.2334,-5.2329,-5.2334,-5.2317,-5.2313,-5.2316,-5.2303,-5.2305,-5.2339,-5.2369,-5.2304,-5.2306,-5.2427,-5.2431,-5.2434,-5.2496,0,0,0,0,0,0,-5.2326,-5.2331,-5.2351,-5.2342,-5.2344,-5.2388,-5.2336,-5.2331,-5.2338,-5.2332,-5.2325,-5.2321,-5.2302,-5.2336,-5.2341,-5.2371,-5.2308,-5.2425,-5.2429,-5.2433,-5.2491,-5.2501,-5.251,0,0,0,0,0,-5.2325,-5.2369,-5.2353,-5.2357,-5.2369,-5.239,-5.2391,-5.2368,-5.234,-5.236,-5.235,-5.2322,-5.2366,-5.234,-5.2345,-5.2376,-5.2422,-5.2428,-5.2433,-5.2487,-5.2499,-5.251,0,0,0,0,0,0,-5.2382,-5.2367,-5.2349,-5.2391,-5.2392,-5.238,-5.2404,-5.2382,-5.239,-5.2384,-5.2355,-5.2354,-5.2392,-5.2388,-5.2359,-5.2428,-5.2389,-5.2396,-5.2429,-5.2441,-5.245,-5.2449,-5.2309,0,0,0,0,0,-5.24,-5.2418,-5.2404,-5.2443,-5.2444,-5.2425,-5.2433,-5.2415,-5.2415,-5.2415,-5.2407,-5.2408,-5.2422,-5.2431,-5.2444,-5.2492,-5.2488,-5.2515,-5.2525,-5.2532,-5.2537,-5.2561,-5.2573,-5.2452,-5.2452,-5.2452,0,0,-5.2437,-5.2431,-5.2444,-5.2454,-5.2453,-5.2472,-5.2425,-5.2447,-5.2461,-5.2418,-5.2448,-5.2443,-5.2442,-5.2483,-5.2501,-5.248,-5.257,-5.2539,-5.2545,-5.2546,-5.2568,-5.2579,-5.2589,-5.2456,-5.2455,-5.2455,0,0,-5.2512,-5.251,-5.2542,-5.2542,-5.254,-5.2527,-5.2535,-5.2527,-5.2522,-5.2552,-5.252,-5.2537,-5.2562,-5.2562,-5.2566,-5.2644,-5.2618,-5.2649,-5.2696,-5.272,-5.273,-5.2738,-5.2764,-5.2774,-5.2655,-5.2655,-5.2655,0,-5.2557,-5.2585,-5.2561,-5.2585,-5.259,-5.2554,-5.2585,-5.2586,-5.2589,-5.2594,-5.2572,-5.2603,-5.26,-5.2639,-5.2658,-5.2663,-5.2671,-5.2648,-5.273,-5.2738,-5.2746,-5.277,-5.278,-5.2658,-5.2658,-5.2658,-5.2657,0,-5.264,-5.2659,-5.2685,-5.2689,-5.2697,-5.2725,-5.2706,-5.2718,-5.27,-5.269,-5.2721,-5.2717,-5.2727,-5.2736,-5.2719,-5.2773,-5.2761,-5.2736,-5.2695,-5.2761,-5.2783,-5.2793,-5.2663,-5.2662,-5.2661,-5.266,0,0,-5.2749,-5.274,-5.275,-5.2751,-5.2748,-5.2762,-5.2789,-5.2799,-5.2809,-5.2814,-5.2834,-5.2857,-5.2834,-5.2838,-5.2821,-5.2843,-5.2903,-5.2814,-5.2814,-5.2829,-5.2961,-5.2978,-5.299,-5.2887,-5.2889,-5.289,-5.296,0,-5.282,-5.2864,-5.2844,-5.289,-5.2908,-5.2874,-5.2897,-5.2898,-5.289,-5.2903,-5.2894,-5.291,-5.2879,-5.2881,-5.2901,-5.2891,-5.2928,-5.2886,-5.2905,-5.2906,-5.2903,-5.3001,-5.302,-5.3086,-5.2969,-5.2971,-5.2972,0,-5.2908,-5.2916,-5.2964,-5.2958,-5.2964,-5.2985,-5.2993,-5.3007,-5.3007,-5.3,-5.3006,-5.2984,-5.301,-5.2972,-5.3007,-5.2979,-5.2986,-5.2982,-5.2984,-5.2983,-5.2941,-5.3,-5.3107,-5.3116,-5.2986,-5.2985,-5.2984,0,-5.298,-5.3003,-5.3034,-5.3037,-5.3031,-5.3046,-5.3045,-5.3043,-5.3051,-5.3058,-5.3062,-5.3073,-5.3078,-5.3087,-5.3069,-5.3044,-5.3106,-5.3067,-5.3099,-5.3099,-5.3111,-5.311,-5.3218,-5.312,-5.312,-5.312,-5.312,0,-5.306,-5.3091,-5.3067,-5.3086,-5.3119,-5.3096,-5.313,-5.3124,-5.3123,-5.3141,-5.3114,-5.313,-5.3107,-5.3122,-5.3108,-5.3138,-5.3141,-5.3135,-5.3131,-5.3136,-5.3137,-5.3138,-5.3132,-5.3123,-5.3122,-5.3122,-5.3121,0,-5.3145,-5.3131,-5.3162,-5.3155,-5.3153,-5.3178,-5.3171,-5.3188,-5.3179,-5.3201,-5.3205,-5.319,-5.3206,-5.319,-5.3205,-5.3196,-5.3236,-5.3226,-5.3235,-5.3231,-5.3264,-5.326,-5.3374,-5.3387,-5.3284,-5.3285,-5.3285,0,-5.3196,-5.3218,-5.3213,-5.3223,-5.3223,-5.3239,-5.3247,-5.3226,-5.3235,-5.3238,-5.3255,-5.3269,-5.3278,-5.3306,-5.3296,-5.3308,-5.3296,-5.3336,-5.3298,-5.3302,-5.3294,-5.3292,-5.3293,-5.3342,-5.3343,-5.3344,-5.3345,0,-5.3287,-5.3279,-5.3291,-5.33,-5.331,-5.3317,-5.3322,-5.3332,-5.3311,-5.3322,-5.3338,-5.3346,-5.3362,-5.3375,-5.3384,-5.3382,-5.336,-5.3358,-5.3365,-5.337,-5.3373,-5.337,-5.3254,-5.3355,-5.3354,-5.3353,-5.3352,-5.3352,-5.3354,-5.3372,-5.3372,-5.3386,-5.3388,-5.3393,-5.3408,-5.3401,-5.3414,-5.3425,-5.3413,-5.3432,-5.3433,-5.3442,-5.3443,-5.3458,-5.3442,-5.3453,-5.3456,-5.3458,-5.3462,-5.3373,-5.346,-5.346,-5.346,-5.3459,-5.3459,0,-5.3442,-5.344,-5.3454,-5.3461,-5.3473,-5.3452,-5.3457,-5.3467,-5.3485,-5.3487,-5.3497,-5.3516,-5.3529,-5.3522,-5.3533,-5.3547,-5.3537,-5.355,-5.3547,-5.3547,-5.3477,-5.3468,-5.3558,-5.3558,-5.3558,-5.3558,-5.3558,-5.3558,-5.3488,-5.3517,-5.351,-5.354,-5.3538,-5.3556,-5.356,-5.3565,-5.3567,-5.3588,-5.36,-5.3595,-5.3593,-5.3604,-5.3616,-5.3613,-5.3618,-5.3634,-5.3628,-5.3562,-5.3552,-5.3543,-5.3534,-5.3636,-5.3636,-5.3696,-5.3697,-5.3697]},{"header":{"parameterUnit":"m.s-1","parameterCategory":1,"la1":30.2991,"la2":30.254,"lo1":-89.0895,"lo2":-89.0444,"dy":0.0017,"dx":0.0017,"nx":28,"ny":28,"refTime":"2024-03-24T09:00:00:Z","depth":0,"parameterNumber":3,"parameterNumberName":"V-component_of_WINDS"},"data":[0,0,0,0,0,0,0,0,0,0,0,0,0,0,0,0,0,0,0,0,0,0,0,0,0,0,0,0,0,0,0,0,0,0,0,0,0,0,0,0,0,0,0,0,0,0,0,0,0,0,0,0,0,0,0,0,0,0,5.2248,5.2247,0,5.22,5.22,5.2199,5.2107,5.2105,5.2104,5.2102,5.2053,5.2053,5.2053,0,0,0,0,0,0,0,0,0,0,0,0,0,5.2262,5.2262,5.2248,5.2247,5.2247,5.22,5.22,5.2199,5.2107,5.2105,5.2103,5.2101,5.2053,5.2053,5.2053,0,0,0,0,0,0,0,0,0,0,0,0,0,5.2239,5.2262,5.2248,5.2196,5.219,5.22,5.22,5.2199,5.2108,5.2105,5.2103,5.21,5.2052,5.2053,5.2054,5.2111,0,0,5.2055,5.2055,0,0,0,0,0,0,0,0,5.224,5.2239,5.2204,5.2199,5.2193,5.2157,5.2186,5.2169,5.2109,5.2139,5.2102,5.2099,5.209,5.2087,5.2084,5.2108,5.2106,5.2055,5.2056,5.2056,5.2056,0,0,0,0,0,0,0,5.2242,5.224,5.2229,5.2204,5.2197,5.2175,5.2169,5.2183,5.213,5.2136,5.213,5.2125,5.2086,5.2083,5.2082,5.2106,5.2055,5.2056,5.2056,5.2056,5.2177,5.2179,0,0,0,0,0,0,5.2251,5.2242,5.2231,5.2228,5.2211,5.2177,5.217,5.2171,5.213,5.2121,5.2128,5.2121,5.2084,5.2081,5.208,5.2145,5.2056,5.2056,5.2057,5.2174,5.2177,5.218,0,0,0,0,0,0,5.2252,5.2251,5.2232,5.2233,5.2229,5.2179,5.2182,5.2172,5.2169,5.2123,5.2113,5.2134,5.2082,5.2079,5.2104,5.2142,5.2057,5.2057,5.217,5.2175,5.2179,5.2276,0,0,0,0,0,0,5.2253,5.2252,5.2273,5.2234,5.2229,5.2258,5.2184,5.2173,5.217,5.2161,5.2127,5.2119,5.2079,5.2104,5.2105,5.2141,5.2057,5.2167,5.2172,5.2177,5.2269,5.2283,5.2295,0,0,0,0,0,5.2253,5.2301,5.2274,5.2273,5.2254,5.226,5.2257,5.2211,5.2174,5.2194,5.2165,5.212,5.2138,5.2107,5.2107,5.2145,5.2164,5.2171,5.2177,5.2263,5.228,5.2294,0,0,0,0,0,0,5.2345,5.2295,5.2264,5.2301,5.2286,5.2244,5.2269,5.223,5.2225,5.2216,5.216,5.2153,5.2186,5.2167,5.2134,5.2199,5.2144,5.2151,5.2209,5.2225,5.2238,5.2241,5.2058,0,0,0,0,0,5.237,5.2378,5.2334,5.2371,5.2365,5.2319,5.2319,5.2286,5.2267,5.226,5.2232,5.2216,5.2218,5.222,5.222,5.2266,5.2258,5.2292,5.2305,5.2316,5.2322,5.2347,5.2362,5.2202,5.2202,5.2201,0,0,5.242,5.2394,5.2403,5.2389,5.2373,5.2383,5.2314,5.2327,5.2335,5.2262,5.2284,5.2264,5.2242,5.2278,5.2293,5.2264,5.2365,5.2324,5.2333,5.2334,5.2355,5.2371,5.2384,5.2206,5.2205,5.2205,0,0,5.2518,5.2499,5.2528,5.2514,5.249,5.246,5.2467,5.2432,5.2416,5.2437,5.2383,5.2392,5.2396,5.2383,5.2378,5.2474,5.2432,5.2475,5.2542,5.2567,5.258,5.2591,5.2626,5.2639,5.2482,5.2482,5.2482,0,5.2584,5.2597,5.2548,5.2566,5.2562,5.2497,5.2527,5.2515,5.2493,5.2492,5.246,5.2466,5.2447,5.248,5.2504,5.2501,5.2508,5.2478,5.2582,5.2592,5.2602,5.2635,5.2648,5.2487,5.2487,5.2486,5.2486,0,5.268,5.2691,5.2717,5.2698,5.2697,5.2721,5.2676,5.2681,5.2648,5.2621,5.2645,5.262,5.2614,5.2619,5.2587,5.2649,5.2632,5.2592,5.2536,5.2623,5.2654,5.2666,5.2495,5.2493,5.2492,5.249,0,0,5.2833,5.2788,5.2798,5.279,5.276,5.2768,5.2789,5.2784,5.279,5.2777,5.2795,5.2801,5.2765,5.2758,5.2724,5.2746,5.2825,5.2703,5.2702,5.2727,5.2893,5.2924,5.2939,5.2797,5.28,5.2801,5.2895,0,5.2925,5.2959,5.2916,5.2959,5.2969,5.2909,5.2928,5.2912,5.2888,5.2894,5.2867,5.2873,5.2824,5.282,5.2839,5.2811,5.2858,5.2804,5.2814,5.2815,5.2821,5.2955,5.2986,5.3076,5.2907,5.2909,5.291,0,5.3036,5.3029,5.3074,5.3044,5.3046,5.3064,5.3056,5.3062,5.3044,5.3025,5.3019,5.2979,5.2999,5.2945,5.2972,5.2937,5.2938,5.2926,5.2928,5.2927,5.2868,5.2958,5.3104,5.3118,5.2928,5.2926,5.2925,0,5.3144,5.3147,5.3174,5.3168,5.3133,5.3147,5.3133,5.3112,5.3113,5.3106,5.3106,5.3102,5.31,5.3099,5.3059,5.3023,5.3092,5.3034,5.3077,5.3079,5.3094,5.3094,5.3243,5.3095,5.3095,5.3095,5.3094,0,5.3251,5.3281,5.3222,5.324,5.3272,5.3223,5.3257,5.3236,5.3219,5.3232,5.3179,5.3192,5.3138,5.3146,5.3115,5.3143,5.3143,5.3129,5.312,5.3134,5.3136,5.3134,5.3127,5.3098,5.3097,5.3097,5.3096,0,5.3377,5.3339,5.3365,5.333,5.3322,5.3348,5.3318,5.3333,5.3306,5.3323,5.3324,5.3282,5.3289,5.3249,5.3248,5.3228,5.3271,5.3252,5.3278,5.3272,5.3318,5.3315,5.3471,5.349,5.333,5.3332,5.3333,0,5.3448,5.347,5.3438,5.3442,5.3431,5.344,5.344,5.3393,5.3396,5.3378,5.3395,5.3398,5.3397,5.3411,5.3381,5.338,5.3361,5.3416,5.336,5.3374,5.3363,5.3362,5.3365,5.3427,5.3429,5.3431,5.3432,0,5.3578,5.3559,5.3561,5.3557,5.3559,5.3554,5.3545,5.3552,5.3502,5.3508,5.3514,5.3514,5.3514,5.3517,5.3511,5.3497,5.3457,5.345,5.346,5.3475,5.3489,5.3483,5.331,5.3447,5.3445,5.3444,5.3443,5.3443,5.3679,5.3696,5.3677,5.3682,5.367,5.3664,5.3677,5.3652,5.3657,5.3653,5.3625,5.3638,5.362,5.3608,5.3599,5.3608,5.3582,5.3596,5.36,5.3604,5.3613,5.3488,5.3607,5.3606,5.3606,5.3605,5.3605,0,5.3807,5.3792,5.3797,5.3787,5.3792,5.3753,5.3742,5.3749,5.376,5.3747,5.3749,5.3757,5.3761,5.3732,5.3732,5.3745,5.3727,5.3747,5.3746,5.3743,5.3636,5.3628,5.3762,5.3762,5.3762,5.3762,5.3762,5.3762,5.3875,5.3902,5.3881,5.3903,5.3888,5.3899,5.3897,5.3891,5.3881,5.3893,5.3896,5.3877,5.3858,5.3857,5.3859,5.3851,5.3854,5.388,5.3866,5.3766,5.3751,5.3736,5.3728,5.3881,5.3881,5.3972,5.3973,5.3974]}]]